ITY1915 EGLL-LIRF

Flight info

Callsign ITY1915
Flight time N/A
Altitude 37000
Route MODMI M185 MID L612 BOGNA UL612 OGULO DCT OKASI DCT OKEKO DCT MOU DCT MADIV DCT MOKIP DCT TUFTA DCT KOGAS DCT MEDAM DCT NITAM DCT MOGBO DCT ELB/N0447F380 DCT ELKAP
Aircraft A320/M-SDE3FGHIRWY/LB1

Departure

Time 2026-05-01 14:32
Airport London Heathrow Airport (EGLL)

Arrival

Time N/A
Airport Rome–Fiumicino Leonardo da Vinci International Airport (LIRF)
Time Latitude Longitude Altitude Speed Heading
2026-05-01 13:53 51.46830 -0.44979 90 ft 0 kts 359°
2026-05-01 13:57 51.46829 -0.44979 86 ft 0 kts 359°
2026-05-01 14:22 51.46827 -0.44979 86 ft 2 kts 359°
2026-05-01 14:23 51.46801 -0.44978 86 ft 4 kts 359°
2026-05-01 14:23 51.46780 -0.44978 86 ft 4 kts
2026-05-01 14:23 51.46757 -0.44989 88 ft 4 kts 54°
2026-05-01 14:23 51.46751 -0.45024 89 ft 4 kts 89°
2026-05-01 14:24 51.46751 -0.45041 86 ft 0 kts 89°
2026-05-01 14:26 51.46751 -0.45042 86 ft 0 kts 89°
2026-05-01 14:28 51.46751 -0.45010 88 ft 8 kts 89°
2026-05-01 14:28 51.46751 -0.44875 86 ft 15 kts 90°
2026-05-01 14:28 51.46752 -0.44696 86 ft 18 kts 90°
2026-05-01 14:28 51.46753 -0.44506 86 ft 17 kts 88°
2026-05-01 14:29 51.46753 -0.44309 86 ft 15 kts 90°
2026-05-01 14:29 51.46754 -0.44193 86 ft 0 kts 89°
2026-05-01 14:30 51.46756 -0.44115 88 ft 10 kts 82°
2026-05-01 14:30 51.46770 -0.43971 86 ft 16 kts 86°
2026-05-01 14:30 51.46748 -0.43840 87 ft 13 kts 142°
2026-05-01 14:31 51.46580 -0.43829 85 ft 14 kts 180°
2026-05-01 14:31 51.46499 -0.43876 86 ft 12 kts 243°
2026-05-01 14:31 51.46494 -0.43933 86 ft 15 kts 268°
2026-05-01 14:31 51.46492 -0.44542 88 ft 90 kts 269°
2026-05-01 14:32 51.46482 -0.45886 87 ft 147 kts 267°
2026-05-01 14:32 51.46523 -0.47663 494 ft 163 kts 274°
2026-05-01 14:32 51.46578 -0.49558 1030 ft 177 kts 272°
2026-05-01 14:32 51.46607 -0.51591 1544 ft 189 kts 271°
2026-05-01 14:33 51.46554 -0.53782 1950 ft 206 kts 264°
2026-05-01 14:33 51.46102 -0.56024 2495 ft 218 kts 243°
2026-05-01 14:33 51.45118 -0.58085 2803 ft 248 kts 227°
2026-05-01 14:33 51.43811 -0.60013 3561 ft 256 kts 222°
2026-05-01 14:34 51.42332 -0.61557 4627 ft 253 kts 205°
2026-05-01 14:34 51.40607 -0.62078 5517 ft 258 kts 181°
2026-05-01 14:34 51.38805 -0.61462 5847 ft 272 kts 165°
2026-05-01 14:34 51.37175 -0.60057 5931 ft 265 kts 152°
2026-05-01 14:35 51.35688 -0.58318 5981 ft 264 kts 152°
2026-05-01 14:35 51.34148 -0.56740 6026 ft 262 kts 158°
2026-05-01 14:35 51.32544 -0.55501 6169 ft 258 kts 166°
2026-05-01 14:35 51.30831 -0.54706 6256 ft 255 kts 176°
2026-05-01 14:36 51.29078 -0.54537 6283 ft 254 kts 188°
2026-05-01 14:36 51.27330 -0.54925 6194 ft 253 kts 197°
2026-05-01 14:36 51.25595 -0.55644 6199 ft 255 kts 200°
2026-05-01 14:36 51.23890 -0.56450 6214 ft 256 kts 200°
2026-05-01 14:37 51.22174 -0.57224 6214 ft 257 kts 199°
2026-05-01 14:37 51.20441 -0.57900 6187 ft 258 kts 197°
2026-05-01 14:37 51.18693 -0.58520 6062 ft 256 kts 197°
2026-05-01 14:37 51.16968 -0.59105 6053 ft 258 kts 196°
2026-05-01 14:38 51.15134 -0.59688 6477 ft 275 kts 195°
2026-05-01 14:38 51.13213 -0.60262 7325 ft 279 kts 194°
2026-05-01 14:38 51.11322 -0.60784 8270 ft 279 kts 193°
2026-05-01 14:38 51.09423 -0.61259 9406 ft 271 kts 189°
2026-05-01 14:39 51.07554 -0.61571 10375 ft 274 kts 181°
2026-05-01 14:39 51.05581 -0.61331 10665 ft 298 kts 169°
2026-05-01 14:39 51.03522 -0.60298 10892 ft 323 kts 157°
2026-05-01 14:39 51.01549 -0.58405 11329 ft 339 kts 147°
2026-05-01 14:40 50.99585 -0.56275 12038 ft 343 kts 148°
2026-05-01 14:40 50.97598 -0.54147 12774 ft 347 kts 148°
2026-05-01 14:40 50.95583 -0.52000 13503 ft 351 kts 148°
2026-05-01 14:40 50.93541 -0.49830 14210 ft 354 kts 148°
2026-05-01 14:41 50.91485 -0.47649 14855 ft 358 kts 148°
2026-05-01 14:41 50.89412 -0.45455 15482 ft 361 kts 148°
2026-05-01 14:41 50.87310 -0.43232 16129 ft 364 kts 148°
2026-05-01 14:41 50.85194 -0.40991 16767 ft 367 kts 148°
2026-05-01 14:42 50.83065 -0.38736 17386 ft 371 kts 148°
2026-05-01 14:42 50.80914 -0.36457 18007 ft 374 kts 148°
2026-05-01 14:42 50.78737 -0.34154 18624 ft 378 kts 148°
2026-05-01 14:42 50.76554 -0.31848 19170 ft 380 kts 148°
2026-05-01 14:43 50.74338 -0.29515 19726 ft 383 kts 148°
2026-05-01 14:43 50.72113 -0.27178 20279 ft 385 kts 148°
2026-05-01 14:43 50.69869 -0.24827 20807 ft 388 kts 148°
2026-05-01 14:43 50.67620 -0.22472 21329 ft 390 kts 148°
2026-05-01 14:44 50.66115 -0.20894 21676 ft 392 kts 148°
2026-05-01 14:44 50.60797 -0.15309 22791 ft 398 kts 148°
2026-05-01 14:44 50.58485 -0.12888 23255 ft 401 kts 148°
2026-05-01 14:45 50.56155 -0.10453 23692 ft 403 kts 148°
2026-05-01 14:45 50.51456 -0.05548 24459 ft 408 kts 148°
2026-05-01 14:45 50.49086 -0.03083 24824 ft 410 kts 148°
2026-05-01 14:46 50.46707 -0.00616 25172 ft 412 kts 148°
2026-05-01 14:46 50.42694 0.03540 25790 ft 414 kts 148°
2026-05-01 14:46 50.40283 0.06029 26125 ft 416 kts 147°
2026-05-01 14:47 50.37861 0.08528 26438 ft 418 kts 147°
2026-05-01 14:47 50.35428 0.11042 26771 ft 420 kts 147°
2026-05-01 14:47 50.32991 0.13563 27084 ft 422 kts 147°
2026-05-01 14:48 50.28073 0.18636 27686 ft 425 kts 147°
2026-05-01 14:48 50.25591 0.21190 27977 ft 427 kts 147°
2026-05-01 14:48 50.20641 0.26262 28524 ft 430 kts 147°
2026-05-01 14:49 50.15623 0.31411 29009 ft 434 kts 147°
2026-05-01 14:49 50.10586 0.36599 29619 ft 433 kts 147°
2026-05-01 14:50 50.06416 0.40889 30188 ft 432 kts 147°
2026-05-01 14:50 50.00566 0.46881 30858 ft 429 kts 147°
2026-05-01 14:51 49.98078 0.49409 31204 ft 427 kts 147°
2026-05-01 14:51 49.93121 0.54436 31823 ft 424 kts 147°
2026-05-01 14:52 49.88185 0.59436 32378 ft 424 kts 147°
2026-05-01 14:52 49.85735 0.61956 32645 ft 423 kts 144°
2026-05-01 14:52 49.81145 0.67689 33196 ft 423 kts 141°
2026-05-01 14:53 49.78866 0.70560 33459 ft 423 kts 141°
2026-05-01 14:53 49.76581 0.73433 33735 ft 423 kts 142°
2026-05-01 14:53 49.74302 0.76298 34026 ft 422 kts 142°
2026-05-01 14:53 49.72019 0.79167 34243 ft 424 kts 142°
2026-05-01 14:54 49.69720 0.82050 34435 ft 425 kts 142°
2026-05-01 14:54 49.67424 0.84928 34653 ft 426 kts 142°
2026-05-01 14:54 49.65123 0.87807 34857 ft 427 kts 142°
2026-05-01 14:54 49.62814 0.90684 35062 ft 427 kts 142°
2026-05-01 14:55 49.60503 0.93558 35339 ft 425 kts 142°
2026-05-01 14:55 49.58201 0.96422 35557 ft 425 kts 142°
2026-05-01 14:55 49.55903 0.99281 35751 ft 426 kts 142°
2026-05-01 14:55 49.53591 1.02156 35929 ft 427 kts 142°
2026-05-01 14:56 49.51280 1.05032 36102 ft 428 kts 142°
2026-05-01 14:56 49.48962 1.07913 36219 ft 430 kts 142°
2026-05-01 14:56 49.46623 1.10802 36350 ft 432 kts 142°
2026-05-01 14:56 49.44271 1.13692 36490 ft 434 kts 142°
2026-05-01 14:57 49.41915 1.16589 36655 ft 434 kts 142°
2026-05-01 14:57 49.37224 1.22366 36976 ft 436 kts 142°
2026-05-01 14:57 49.34863 1.25275 37143 ft 436 kts 142°
2026-05-01 14:58 49.30115 1.31106 37195 ft 437 kts 142°
2026-05-01 14:58 49.25368 1.36912 37200 ft 436 kts 142°
2026-05-01 14:59 49.20621 1.42715 37315 ft 436 kts 142°
2026-05-01 14:59 49.18252 1.45611 37503 ft 436 kts 142°
2026-05-01 14:59 49.15877 1.48504 37685 ft 437 kts 143°
2026-05-01 15:00 49.11119 1.54277 37976 ft 438 kts 143°
2026-05-01 15:00 49.08736 1.57166 38158 ft 438 kts 143°
2026-05-01 15:01 49.03936 1.62978 38224 ft 442 kts 143°
2026-05-01 15:01 48.99116 1.68799 38211 ft 442 kts 143°
2026-05-01 15:02 48.94290 1.74622 38211 ft 443 kts 143°
2026-05-01 15:02 48.89471 1.80416 38223 ft 441 kts 143°
2026-05-01 15:03 48.84645 1.86176 38214 ft 441 kts 143°
2026-05-01 15:03 48.79829 1.91925 38228 ft 441 kts 143°
2026-05-01 15:04 48.75002 1.97682 38228 ft 441 kts 143°
2026-05-01 15:04 48.70174 2.03422 38232 ft 441 kts 143°
2026-05-01 15:05 48.65346 2.09163 38230 ft 441 kts 143°
2026-05-01 15:05 48.60562 2.14831 38224 ft 442 kts 143°
2026-05-01 15:06 48.55826 2.20748 38193 ft 443 kts 136°
2026-05-01 15:06 48.51495 2.27372 38221 ft 443 kts 136°
2026-05-01 15:07 48.47150 2.33960 38218 ft 443 kts 137°
2026-05-01 15:07 48.42814 2.40500 38222 ft 443 kts 137°
2026-05-01 15:08 48.38429 2.47116 38217 ft 444 kts 137°
2026-05-01 15:08 48.34081 2.53661 38214 ft 445 kts 137°
2026-05-01 15:09 48.29672 2.60187 38199 ft 444 kts 141°
2026-05-01 15:09 48.24499 2.65081 38211 ft 439 kts 157°
2026-05-01 15:10 48.18969 2.68997 38217 ft 440 kts 155°
2026-05-01 15:10 48.10889 2.75615 38212 ft 442 kts 153°
2026-05-01 15:11 48.02565 2.81498 38214 ft 441 kts 159°
2026-05-01 15:12 47.96912 2.85081 38206 ft 442 kts 159°
2026-05-01 15:12 47.88416 2.90436 38212 ft 443 kts 159°
2026-05-01 15:14 47.74218 2.99399 38206 ft 444 kts 160°
2026-05-01 15:14 47.65678 3.04760 38216 ft 445 kts 160°
2026-05-01 15:15 47.54263 3.11910 38211 ft 446 kts 160°
2026-05-01 15:16 47.42856 3.19001 38217 ft 447 kts 160°
2026-05-01 15:18 47.28509 3.27897 38205 ft 448 kts 161°
2026-05-01 15:19 47.16982 3.34990 38211 ft 450 kts 161°
2026-05-01 15:19 47.08316 3.40309 38206 ft 450 kts 161°
2026-05-01 15:20 46.99638 3.45618 38212 ft 451 kts 161°
2026-05-01 15:21 46.93843 3.49140 38216 ft 451 kts 161°
2026-05-01 15:21 46.88048 3.52664 38202 ft 451 kts 161°
2026-05-01 15:22 46.79337 3.57945 38208 ft 452 kts 161°
2026-05-01 15:22 46.73908 3.62602 38210 ft 460 kts 141°
2026-05-01 15:23 46.71700 3.66000 38211 ft 464 kts 129°
2026-05-01 15:23 46.69974 3.69985 38205 ft 467 kts 117°
2026-05-01 15:23 46.68797 3.74380 38205 ft 469 kts 106°
2026-05-01 15:23 46.68007 3.78994 38204 ft 470 kts 105°
2026-05-01 15:24 46.66440 3.88180 38202 ft 471 kts 105°
2026-05-01 15:24 46.64851 3.97424 38206 ft 471 kts 105°
2026-05-01 15:25 46.63249 4.06674 38208 ft 471 kts 105°
2026-05-01 15:25 46.61638 4.15916 38217 ft 471 kts 105°
2026-05-01 15:26 46.60021 4.25150 38225 ft 471 kts 105°
2026-05-01 15:26 46.58393 4.34390 38226 ft 471 kts 105°
2026-05-01 15:27 46.56760 4.43605 38228 ft 471 kts 106°
2026-05-01 15:28 46.54308 4.57417 38229 ft 470 kts 106°
2026-05-01 15:28 46.52665 4.66601 38231 ft 470 kts 106°
2026-05-01 15:29 46.50177 4.80368 38225 ft 470 kts 106°
2026-05-01 15:30 46.47124 4.97152 38221 ft 470 kts 106°
2026-05-01 15:31 46.41798 5.26132 38225 ft 469 kts 105°
2026-05-01 15:32 46.37508 5.43835 38229 ft 465 kts 124°
2026-05-01 15:34 46.25158 5.65234 38240 ft 463 kts 132°